Date,TemperatureHighF,TemperatureAvgF,TemperatureLowF,DewpointHighF,DewpointAvgF,DewpointLowF,HumidityHigh,HumidityAvg,HumidityLow,PressureMaxIn,PressureMinIn,WindSpeedMaxMPH,WindSpeedAvgMPH,GustSpeedMaxMPH,PrecipitationSumIn
2013-10-1,67,58,50,55,50,44,81,74,57,29.98,29.90,12,1,12,0.00
2013-10-2,64,54,43,54,46,38,81,75,63,29.99,29.91,11,1,11,0.00
2013-10-3,66,54,40,51,44,-100,82,70,46,30.07,29.94,9,-4,9,0.00
2013-10-4,80,61,44,46,38,28,79,51,16,30.06,29.97,10,1,12,0.00
2013-10-5,82,59,39,48,40,31,83,57,16,30.14,30.06,5,0,5,0.00
2013-10-6,84,61,40,55,43,33,83,58,17,30.08,29.97,6,0,6,0.00
2013-10-7,74,57,40,51,45,-100,84,67,33,29.96,29.86,9,-4,9,0.00
2013-10-8,68,54,40,54,46,35,83,75,53,29.88,29.72,8,1,8,0.00
2013-10-9,65,56,46,50,46,40,82,71,52,29.71,29.61,8,1,8,0.00
2013-10-10,64,52,41,54,45,36,82,78,67,29.96,29.73,10,1,10,0.00
2013-10-11,62,51,40,52,44,35,82,79,67,30.06,29.96,7,0,7,0.00
2013-10-12,65,52,38,54,46,34,82,79,63,29.99,29.88,15,1,15,0.00
2013-10-13,72,54,43,56,45,38,81,74,43,30.02,29.90,9,0,9,0.00
2013-10-14,73,53,38,53,43,33,82,69,38,30.08,29.98,7,0,7,0.00
2013-10-15,74,53,38,52,40,33,82,65,31,30.00,29.93,6,0,6,0.00
2013-10-16,78,56,37,52,42,32,82,64,30,30.04,29.96,5,0,5,0.00
2013-10-17,71,52,37,51,42,32,82,70,44,30.05,29.95,7,0,7,0.00
2013-10-18,60,52,45,53,45,39,80,79,74,30.03,29.97,8,1,8,0.00
2013-10-19,62,50,41,54,44,36,80,79,73,30.05,29.98,7,0,7,0.00
2013-10-20,57,50,44,51,44,38,80,79,77,30.01,29.91,10,1,10,0.00
2013-10-21,61,52,49,53,45,42,79,78,76,29.98,29.90,8,0,8,0.00
2013-10-22,57,51,47,50,44,41,80,78,77,29.99,29.92,11,1,11,0.00
2013-10-23,57,51,46,51,44,40,80,78,77,29.95,29.89,4,0,8,0.00
2013-10-24,59,51,43,51,44,37,79,78,75,30.08,29.94,6,0,6,0.00
2013-10-25,61,48,38,53,41,32,80,78,74,30.14,30.06,8,0,8,0.00
2013-10-26,62,47,36,54,40,30,80,78,74,30.11,30.01,7,0,7,0.00
2013-10-27,58,52,48,51,46,41,80,77,75,30.01,29.64,16,2,16,0.00
2013-10-28,58,53,49,50,46,41,80,77,73,29.74,29.63,18,1,18,0.01
2013-10-29,61,50,41,52,43,35,79,76,69,30.01,29.79,7,0,7,0.00
2013-10-30,64,49,38,54,41,32,80,76,65,30.11,30.02,7,0,7,0.00
2013-10-31,64,48,36,55,41,-100,80,76,68,30.14,30.04,3,-4,4,0.01